ジェディキ彗星

179P/Jedicke (1993)

English version
Home page
Updated on November 18, 2007

---------------------------------------------------------------------

・ プロフィール

符号 179P/1995 A1
発見日 1995年1月9日
発見光度 19.1等
発見者 R. Jedicke (Kitt Peak)

・ 軌道要素

                    Epoch = 1993 Aug.  1.0 TT
     T = 1993 Aug. 17.2819 TT         Peri. = 295.9191
     e = 0.308106                     Node  = 116.0169  2000.0
     q = 4.082327 AU                  Incl. =  19.8756
       a =  5.900222 AU    n = 0.0687704    P =  14.33 years

・ 星図

・ 1993年 6月12日〜1996年 1月28日

・ 光度変化

        m1 = 3.0 + 5 logΔ + 20.0 log r

---------------------------------------------------------------------

軌道要素は Dr. Brian G. Marsden の計算によるもので、 IAUC 8764 に掲載されたものです。
星図は StellaNavigator Ver.2.0 for Windows (アストロアーツ 編著 / アスキー出版局刊) で作成したものです。
光度グラフはComet for Windowsで作成したものです。

---------------------------------------------------------------------

Copyright(C) Seiichi Yoshida (comet@aerith.net). All rights reserved.